Champaign, IL

10:22 PM CDT on August 18, 2019 (GMT -0500)
Univ Of Illinois-Willard

Weather History for KCMI - July, 2019

Change the Weather History Date:

Sunday, July 21, 2019

  Actual Average Record
Temperature  
Mean Temperature 81 °F 74 °F  
Max Temperature 90 °F 84 °F 97 °F (2011)
Min Temperature 71 °F 64 °F 53 °F (2000)
Degree Days  
Heating Degree Days 0 0  
Month to date heating degree days 0 0  
Since 1 June heating degree days 7 17  
Since 1 July heating degree days 0 0  
Cooling Degree Days 16 9  
Month to date cooling degree days 302 198  
Year to date cooling degree days 646 513  
Since 1 June cooling degree days 536 421  
Growing Degree Days 31 (Base 50)    
Moisture  
Dew Point 73 °F    
Average Humidity 80    
Maximum Humidity 100    
Minimum Humidity 59    
Precipitation  
Precipitation 0.03 in 0.16 in 2.93 in (2013)
Month to date precipitation 3.56 3.04  
Year to date precipitation 24.31 22.37  
Sea Level Pressure  
Sea Level Pressure 29.90 in    
Wind  
Wind Speed 9 mph (WNW)    
Max Wind Speed 17 mph    
Max Gust Speed 24 mph    
Visibility 9 miles    
Events Rain    
T = Trace of Precipitation, MM = Missing Value Source: NWS Daily Summary

Daily Weather History Graph

Daily Weather History Graph

Search for Another Location

Airport or City:

Astronomy

Jul. 21, 2019 Rise Set
Actual Time 5:41 AM CDT 8:17 PM CDT
Civil Twilight 5:10 AM CDT 8:48 PM CDT
Nautical Twilight 4:30 AM CDT 9:27 PM CDT
Astronomical Twilight 3:46 AM CDT 10:11 PM CDT
Moon 11:11 PM CDT (7/21) 10:01 AM CDT (7/21)
Length of Visible Light 15h 38m
Length of Day
14h 35m
Waning Gibbous, 80% of the Moon is Illuminated
Jul 21
Waning Gibbous
Jul 24
Last Quarter
Jul 31
New
Aug 7
First Quarter
Aug 15
Full

Hourly Weather History & Observations

Time (CDT) Temp. Heat Index Dew Point Humidity Pressure Visibility Wind Dir Wind Speed Gust Speed Precip Events Conditions
12:53 AM 77.0 °F - 73.9 °F 90% 29.90 in 9.0 mi South 6.9 mph - N/A   Clear
1:53 AM 77.0 °F - 73.0 °F 88% 29.88 in 10.0 mi South 9.2 mph - N/A   Clear
2:53 AM 77.0 °F - 73.9 °F 90% 29.86 in 10.0 mi SSW 9.2 mph - N/A   Clear
3:53 AM 77.0 °F - 73.9 °F 90% 29.87 in 9.0 mi South 5.8 mph - N/A   Clear
4:53 AM 75.0 °F - 73.9 °F 96% 29.88 in 7.0 mi Calm Calm - N/A   Mostly Cloudy
5:53 AM 73.9 °F - 73.0 °F 97% 29.88 in 5.0 mi South 4.6 mph - N/A   Clear
6:53 AM 77.0 °F - 75.0 °F 94% 29.89 in 6.0 mi South 5.8 mph - N/A   Clear
7:53 AM 81.0 °F 87.9 °F 77.0 °F 88% 29.89 in 9.0 mi SSW 9.2 mph - N/A   Scattered Clouds
8:53 AM 82.0 °F 89.4 °F 75.9 °F 82% 29.91 in 10.0 mi SSW 8.1 mph - N/A   Mostly Cloudy
9:53 AM 84.9 °F 95.3 °F 77.0 °F 77% 29.90 in 10.0 mi South 6.9 mph - N/A   Partly Cloudy
10:53 AM 86.0 °F 95.1 °F 75.0 °F 70% 29.91 in 10.0 mi SSW 6.9 mph - N/A   Mostly Cloudy
11:53 AM 87.1 °F 97.3 °F 75.9 °F 69% 29.91 in 10.0 mi SW 10.4 mph - N/A   Scattered Clouds
12:53 PM 88.0 °F 98.5 °F 75.9 °F 67% 29.88 in 10.0 mi SW 11.5 mph - N/A   Scattered Clouds
1:09 PM 88.0 °F 100.2 °F 77.0 °F 70% 29.90 in 10.0 mi WSW 13.8 mph 19.6 mph N/A   Scattered Clouds
1:53 PM 89.1 °F 103.2 °F 78.1 °F 70% 29.87 in 10.0 mi West 9.2 mph - N/A   Partly Cloudy
2:53 PM 89.1 °F 98.0 °F 73.9 °F 61% 29.87 in 10.0 mi West 10.4 mph - N/A   Scattered Clouds
3:53 PM 86.0 °F 95.1 °F 75.0 °F 70% 29.88 in 10.0 mi North 11.5 mph 23.0 mph N/A   Mostly Cloudy
4:53 PM 80.1 °F 84.2 °F 73.0 °F 79% 29.89 in 5.0 mi North 16.1 mph 24.2 mph 0.01 in Rain Light Rain
5:00 PM 79.0 °F - 75.0 °F 88% 29.91 in 2.5 mi North 13.8 mph 23.0 mph 0.02 in Rain Light Rain
5:08 PM 81.0 °F 87.3 °F 75.9 °F 85% 29.91 in 10.0 mi North 9.2 mph - 0.02 in   Mostly Cloudy
5:53 PM 82.0 °F 87.4 °F 73.0 °F 74% 29.90 in 10.0 mi North 11.5 mph 23.0 mph 0.02 in   Scattered Clouds
6:53 PM 80.1 °F 83.6 °F 71.1 °F 74% 29.91 in 10.0 mi North 11.5 mph - N/A   Partly Cloudy
7:53 PM 78.1 °F - 71.1 °F 79% 29.93 in 10.0 mi North 11.5 mph - N/A   Clear
8:28 PM 77.0 °F - 71.1 °F 82% 29.95 in 10.0 mi North 10.4 mph - N/A   Overcast
8:53 PM 77.0 °F - 70.0 °F 79% 29.93 in 10.0 mi NNE 10.4 mph - N/A   Overcast
9:34 PM 73.9 °F - 69.1 °F 85% 29.96 in 10.0 mi NE 6.9 mph - N/A   Partly Cloudy
9:53 PM 73.9 °F - 68.0 °F 82% 29.94 in 10.0 mi NNE 8.1 mph - N/A   Clear
10:53 PM 73.0 °F - 66.9 °F 81% 29.95 in 10.0 mi NNE 9.2 mph - N/A   Clear
11:53 PM 72.0 °F - 66.0 °F 81% 29.93 in 10.0 mi NNE 9.2 mph - N/A   Clear